SCP
1 1 1 1 1 1 1 0 0 0 0 0 0 0 1 1 1 1 2 3 3 3 2 2 2 1 1 1 1 1 1 0 0 0 0 0 0 0 0 0 0 0 0 0 0 0 0 0 0
1 1 1 1 1 1 1 0 0 0 0 0 0 0 1 1 1 1 2 3 3 3 2 2 2 1 1 1 1 1 1 0 0 0 0 0 0 0 0 0 0 0 0 0 0 0 0 0 0
1 1 1 1 1 1 0 0 0 0 0 0 0 1 1 1 1 2 2 3 3 2 2 2 2 2 1 1 1 1 1 1 0 0 0 0 0 0 0 0 0 0 0 0 0 0 0 0 0
1 1 1 1 1 0 0 0 0 0 0 0 1 1 2 2 1 1 2 2 3 2 2 2 2 2 1 1 1 1 1 1 0 0 0 0 0 0 0 0 0 0 0 0 0 0 0 0 0
1 1 1 1 0 0 0 0 0 0 1 1 1 1 2 2 2 2 2 2 3 3 2 2 2 2 2 1 1 1 1 1 1 1 1 1 0 0 0 0 0 0 0 0 0 0 0 0 0
1 1 1 0 0 0 0 0 0 1 1 1 1 2 2 2 2 2 2 3 3 3 3 2 2 2 2 2 2 1 1 1 1 1 0 0 0 0 0 0 0 0 0 0 0 0 0 0 0
0 1 1 0 0 0 0 0 0 1 1 2 1 2 3 3 3 2 3 3 4 4 3 2 2 2 2 2 2 2 1 1 1 0 0 0 0 0 0 0 0 0 0 0 0 0 0 0 0
0 0 0 0 0 0 0 0 0 1 2 2 2 2 4 4 3 3 4 5 5 4 3 2 2 2 1 1 1 1 1 1 1 0 0 0 0 0 0 0 0 0 0 0 0 0 0 0 0
0 0 0 0 0 0 0 0 0 1 2 2 3 4 5 5 5 5 5 5 5 4 4 3 3 2 2 1 1 1 1 1 1 1 0 0 0 0 0 0 0 0 0 0 0 0 0 0 0
0 0 0 0 0 0 0 0 0 1 2 2 4 6 7 6 6 6 6 5 5 5 4 4 4 3 2 1 1 1 1 1 1 1 0 0 0 0 0 1 0 0 0 0 0 0 0 0 0
0 0 0 0 0 0 0 0 1 1 2 2 4 6 7 6 6 6 5 5 5 5 6 5 4 3 2 2 2 1 1 1 1 1 1 0 0 1 1 1 0 0 0 0 0 0 0 0 0
0 0 0 0 0 0 0 1 1 1 2 3 5 6 7 6 6 5 5 6 7 7 7 6 5 4 3 3 2 2 2 1 1 1 1 1 1 1 1 1 0 0 0 1 0 0 0 0 0
0 0 0 0 0 0 0 1 1 2 2 3 5 6 7 7 6 6 6 7 9 9 8 7 6 5 5 4 3 2 2 2 2 2 2 1 1 1 1 1 1 1 1 1 0 0 0 0 0
0 0 0 0 0 0 1 1 1 2 2 3 5 6 8 8 8 7 7 9 10 10 9 9 9 9 7 6 5 3 2 2 2 2 2 2 1 1 1 1 1 1 1 1 0 0 0 0 0
0 0 0 0 0 0 0 1 2 2 3 3 4 6 9 10 8 8 8 9 11 11 11 11 11 11 10 8 5 3 2 2 3 3 3 2 2 2 1 1 1 1 1 0 0 0 0 0 0
0 0 0 0 0 0 0 1 3 3 3 3 4 5 7 8 8 8 8 9 11 12 11 9 9 10 10 8 6 4 3 3 3 5 5 4 2 2 1 1 1 1 1 0 0 0 0 0 0
0 0 0 0 0 0 0 2 3 3 3 3 4 5 6 7 7 8 8 8 9 10 9 7 6 7 8 7 6 4 4 4 4 6 6 5 3 2 1 1 1 1 1 1 1 0 0 0 0
0 0 0 0 0 0 0 2 3 3 3 3 4 5 7 7 7 6 6 6 7 8 7 6 5 6 7 6 5 4 5 5 4 5 5 4 3 2 1 1 1 1 1 1 1 1 0 0 0
0 0 0 0 0 0 0 1 2 3 3 3 4 5 7 7 7 6 5 5 5 6 6 5 5 5 6 5 5 5 5 4 4 3 3 3 3 2 1 1 1 1 1 1 1 1 0 0 0
0 0 0 0 0 0 0 1 2 3 3 4 4 5 6 7 6 6 5 5 5 5 5 5 4 4 4 5 5 5 5 4 3 3 3 3 3 2 2 1 1 1 1 1 1 1 0 0 0
0 0 0 0 0 0 0 1 2 3 3 3 3 3 5 5 5 5 5 5 5 4 4 4 4 4 3 4 5 5 4 3 3 2 2 2 2 2 2 2 2 2 1 1 1 1 0 0 0
0 0 0 0 0 0 0 1 2 2 3 3 3 3 4 4 5 5 5 5 4 4 4 4 4 4 3 4 4 4 3 3 3 2 2 2 2 1 2 2 3 2 2 1 1 1 1 1 0
0 0 0 0 0 0 0 1 1 2 2 3 3 4 3 3 4 4 4 4 4 4 4 5 5 5 4 3 4 3 3 2 2 2 2 2 1 1 2 3 3 2 2 1 1 1 1 1 1
0 0 0 0 0 0 0 1 1 1 2 2 3 3 3 3 3 4 3 3 3 4 4 5 5 4 3 3 3 3 3 3 2 2 2 1 1 1 1 2 3 2 1 1 1 1 1 1 1
0 0 0 0 0 1 1 1 1 1 1 2 3 3 2 3 3 4 3 3 3 3 4 4 4 3 2 2 2 3 3 3 3 2 2 1 1 1 1 2 2 2 1 1 1 1 1 1 1
0 0 0 0 0 1 1 1 1 1 1 2 2 2 2 3 3 4 4 4 3 3 3 3 3 2 2 2 2 3 3 3 3 3 2 2 1 1 1 2 2 2 1 1 1 1 1 1 1
0 0 0 0 0 1 1 1 1 1 1 1 2 2 2 3 3 3 4 4 3 3 2 2 2 2 2 2 2 2 2 2 3 3 3 2 2 2 2 2 2 2 1 1 1 1 1 1 1
0 0 0 0 0 0 0 1 1 2 1 1 2 2 2 3 3 3 4 4 4 3 2 2 2 3 3 2 2 2 2 2 3 3 3 4 4 3 2 2 2 2 2 1 1 1 1 1 1
0 0 0 0 0 0 0 1 1 1 1 1 2 3 3 3 3 4 4 5 5 4 3 2 2 3 4 3 3 2 2 2 3 3 4 5 4 3 3 2 2 2 2 1 1 1 1 1 1
0 0 0 0 0 0 0 1 1 1 1 1 3 3 3 2 3 4 5 6 6 5 3 2 2 4 4 4 3 3 3 3 3 3 4 4 4 4 3 3 2 2 2 2 1 1 1 1 2
Wind_Speed
11 13 11 8 4 6 7 6 10 10 10 9 8 7 10 11 8 7 8 17 24 21 19 18 17 16 16 15 15 15 15 14 13 12 12 11 10 10 10 10 10 10 10 10 10 10 10 10 10
12 15 11 5 5 5 2 7 10 10 9 6 5 7 10 12 11 11 13 19 24 21 18 17 18 17 16 15 15 14 14 14 13 12 11 11 10 10 10 10 10 10 10 10 10 10 10 10 10
14 18 9 6 9 6 4 8 8 7 7 5 4 7 8 8 8 10 15 21 22 20 18 18 19 17 16 15 15 14 14 13 13 12 11 11 10 10 11 10 10 10 10 10 10 10 10 10 9
10 8 5 7 10 5 6 7 5 4 4 5 4 6 9 8 6 12 17 19 21 20 19 18 18 18 17 16 15 14 14 13 12 12 11 11 11 11 10 10 10 10 10 10 10 10 9 9 8
10 6 7 9 11 4 6 6 4 4 4 5 5 6 10 7 8 14 14 19 20 20 19 18 18 18 17 16 15 14 14 13 12 11 11 11 11 11 10 10 10 10 10 10 9 9 9 8 7
8 7 8 8 8 4 4 4 3 3 3 2 3 6 8 8 10 12 14 17 18 19 20 17 18 18 17 16 15 14 14 13 12 11 11 11 11 10 10 10 10 9 9 9 9 8 8 7 6
10 10 11 12 7 2 4 4 3 3 3 3 3 6 9 9 11 12 13 14 16 18 18 16 16 15 16 15 15 14 14 13 12 11 11 11 10 10 10 9 9 9 8 8 8 7 7 6 5
11 10 13 12 5 3 5 4 3 3 3 5 5 4 8 10 12 13 13 14 15 16 17 15 15 14 13 13 14 14 14 13 12 11 11 10 10 10 10 9 8 8 8 7 7 6 5 5 4
13 10 10 10 6 5 5 5 3 2 4 5 5 6 9 14 15 14 12 13 13 14 14 14 15 13 13 13 13 13 13 12 11 10 11 10 8 8 8 9 10 8 7 6 6 5 5 5 5
10 9 11 10 7 7 7 6 6 2 4 3 3 8 13 14 16 15 14 15 16 15 14 12 13 13 12 11 10 8 9 9 8 7 8 6 4 5 8 11 10 9 8 7 6 6 5 5 4
12 14 12 11 8 8 9 8 7 4 1 3 6 10 13 14 14 14 14 15 16 15 13 13 12 10 10 8 8 6 5 6 6 7 6 4 3 4 6 5 6 6 8 5 6 6 5 3 2
13 14 13 11 10 10 10 9 8 5 3 4 7 12 13 14 14 13 13 14 14 14 13 13 12 8 6 8 7 6 5 5 5 5 5 3 2 1 3 3 4 4 3 4 3 2 2 2 3
13 13 14 13 11 10 9 6 9 8 4 3 5 10 13 14 13 12 11 9 12 12 11 11 11 8 5 5 5 6 5 5 5 5 3 3 2 2 2 2 2 2 3 4 3 2 2 1 2
13 14 14 13 13 11 6 3 4 5 3 2 5 8 9 11 12 11 10 10 11 10 9 9 9 9 7 4 3 3 5 4 5 5 5 3 2 3 2 2 1 0 1 2 1 3 2 2 2
14 15 16 13 14 10 5 3 2 6 3 2 4 6 8 8 9 9 9 8 10 11 10 10 8 8 7 6 5 4 4 5 5 5 5 3 3 4 2 2 2 1 2 3 1 2 2 3 3
18 17 14 11 13 9 6 2 5 3 2 3 4 6 7 7 7 7 8 7 8 9 10 11 11 10 8 5 4 3 4 4 4 4 5 4 4 4 2 2 2 1 2 2 2 2 2 1 2
17 15 13 10 11 8 6 4 5 5 3 4 5 6 8 8 7 7 8 9 9 9 9 8 9 10 9 7 5 3 3 4 4 4 4 4 4 4 2 2 2 2 1 2 1 2 1 1 1
14 12 10 10 7 7 8 6 3 6 3 4 6 7 8 8 8 9 9 9 8 9 10 9 8 9 8 6 4 3 3 3 4 4 4 4 3 3 2 3 3 1 1 2 3 2 1 0 1
17 16 13 10 9 9 9 8 4 4 4 5 6 7 8 8 9 10 10 10 10 10 10 10 9 9 7 6 5 5 5 4 4 5 6 4 3 4 0 2 3 0 1 2 3 1 1 1 1
16 15 15 12 11 10 10 10 4 4 2 3 7 8 9 10 10 10 10 11 11 10 10 10 10 10 9 6 5 4 5 4 4 4 4 4 4 4 4 2 2 2 2 2 2 2 0 2 2
16 14 15 14 13 13 13 10 2 3 4 5 7 9 9 10 11 11 11 10 10 10 11 11 11 10 9 8 5 4 4 3 4 5 4 3 4 3 2 3 1 2 2 3 1 1 1 1 1
15 15 16 16 14 12 11 8 2 4 6 7 7 9 9 9 10 10 10 10 10 10 10 10 10 10 9 9 7 8 6 5 6 5 4 4 3 4 4 3 2 1 1 3 3 3 1 1 1
16 15 15 15 14 14 12 10 3 5 5 8 10 10 10 10 10 9 9 9 9 9 10 10 10 9 9 8 8 7 6 5 5 5 6 4 3 3 4 4 3 1 0 2 2 2 1 1 2
15 15 15 13 11 13 11 11 6 5 5 8 10 11 9 10 10 9 8 7 8 9 9 10 10 9 9 8 8 7 6 6 7 7 7 5 4 3 4 5 3 2 1 2 2 1 1 1 2
13 11 10 11 9 8 7 7 6 3 5 7 10 11 11 10 9 9 8 8 8 9 10 10 11 9 9 9 8 7 6 6 7 7 7 5 5 4 5 5 3 2 2 3 2 2 0 1 1
13 14 12 12 9 5 4 7 6 2 6 8 10 12 11 11 10 9 8 8 8 8 9 10 10 9 9 9 7 6 6 5 5 5 5 4 3 5 6 5 4 3 3 4 3 2 3 2 1
16 14 15 14 14 11 7 8 7 4 5 7 11 12 11 10 11 10 10 9 9 9 9 9 10 9 10 9 8 6 6 4 5 5 4 4 3 6 7 6 5 4 3 2 3 2 1 2 2
16 14 9 10 10 11 8 4 1 3 2 2 7 10 11 11 11 12 10 10 10 9 9 9 9 9 10 10 9 8 6 5 4 4 3 3 3 4 7 6 5 4 3 3 2 2 2 2 2
12 14 12 9 9 10 9 3 3 3 5 7 9 11 12 12 12 12 11 11 11 11 10 10 9 9 10 10 8 8 7 7 5 4 3 2 3 5 5 5 4 4 4 4 3 3 2 3 3
11 12 12 10 10 10 10 4 3 5 6 4 5 11 13 12 12 13 12 11 11 11 11 10 10 10 9 9 8 8 7 7 6 6 5 4 3 3 4 3 3 3 2 2 3 3 2 2 2
Wind_Direction
241 244 238 249 248 248 275 51 59 61 60 52 46 43 58 60 70 106 147 133 122 125 130 131 129 129 129 130 130 130 128 126 124 121 118 115 112 109 105 101 99 97 94 92 90 89 90 91 94
265 261 246 244 266 277 355 58 63 58 61 60 64 56 65 64 74 110 130 126 126 129 136 133 132 131 131 131 131 131 129 127 125 123 121 118 115 112 108 104 101 98 96 94 92 90 92 95 98
265 267 269 244 248 277 34 57 62 68 74 58 62 74 72 75 84 114 127 132 129 132 132 132 137 134 133 132 131 130 130 128 127 125 123 120 115 110 107 104 102 99 96 94 91 91 93 96 101
262 256 265 276 287 315 35 53 53 52 77 75 50 80 80 63 80 118 133 137 130 131 131 137 138 137 136 135 134 134 133 133 131 127 125 122 117 111 108 104 102 99 96 94 92 92 94 98 103
249 255 245 273 289 327 44 44 37 48 39 63 66 85 94 88 98 122 142 137 134 135 132 139 140 139 139 139 138 138 138 136 133 131 130 125 119 115 111 107 105 103 100 98 97 95 96 100 108
260 255 264 283 289 352 48 61 40 50 60 58 105 117 101 112 119 139 147 139 135 132 133 137 141 141 141 142 142 141 140 138 136 135 133 127 124 121 116 113 111 108 106 104 103 102 103 105 115
265 279 285 284 280 15 34 34 31 9 42 37 47 98 115 127 135 149 146 137 135 134 135 142 145 144 145 145 145 145 142 141 140 139 135 133 132 130 126 122 120 116 113 112 111 109 109 115 127
262 286 300 298 311 24 40 13 31 12 43 44 18 56 128 140 146 147 148 141 133 135 140 148 149 147 151 150 150 148 146 146 146 147 146 145 144 145 143 141 132 129 128 125 123 123 126 135 151
262 270 283 297 329 358 7 345 339 56 57 43 20 47 130 144 147 152 153 143 137 139 143 151 148 152 156 155 152 153 152 154 155 158 162 166 170 163 164 145 145 146 146 147 148 151 159 166 182
246 261 281 307 336 335 335 330 312 317 84 105 110 117 137 152 155 161 162 156 150 149 151 148 149 159 163 157 149 160 164 161 178 168 173 192 188 164 146 145 157 161 165 168 178 186 196 206 191
252 268 286 305 321 319 314 309 302 312 11 127 158 160 155 157 162 168 168 164 158 156 151 151 151 165 162 145 157 164 165 162 188 169 178 188 172 152 140 158 161 175 181 188 180 201 216 196 161
253 277 291 296 305 303 302 313 318 353 47 131 157 163 164 166 172 174 168 168 161 157 152 152 147 158 155 149 157 159 164 168 171 157 185 168 163 149 136 153 170 181 181 177 182 215 198 144 160
257 265 274 283 289 289 299 329 343 356 23 95 123 149 166 170 168 171 165 159 156 152 152 148 145 147 139 137 159 164 160 168 154 154 173 155 164 140 129 131 148 193 160 164 179 189 140 144 202
285 290 290 290 286 280 285 326 41 301 303 84 122 140 159 165 166 167 159 159 153 147 146 137 141 142 137 142 161 155 165 158 149 152 152 174 149 120 127 134 111 171 125 116 157 151 157 188 199
284 282 278 283 274 268 296 329 158 223 219 99 118 133 138 150 163 166 161 156 148 143 139 133 144 145 146 161 181 173 170 155 138 137 146 163 128 122 136 140 177 168 128 134 167 152 178 193 182
279 270 269 270 266 267 273 308 134 226 225 125 128 140 141 140 158 158 154 148 141 140 144 151 161 155 158 172 198 178 163 139 134 141 141 145 127 140 162 166 150 143 158 166 169 187 192 190 156
265 267 270 255 247 270 291 313 156 202 185 139 142 146 145 145 160 157 157 151 151 149 153 160 156 157 165 176 188 167 133 128 133 136 133 140 146 152 182 122 114 193 199 177 176 127 91 145 167
273 283 284 278 261 286 301 305 217 170 150 141 146 155 152 161 169 162 160 158 159 158 160 167 161 161 167 173 171 152 140 144 137 122 123 139 151 152 162 143 138 231 167 110 79 95 98 357 212
275 288 290 284 290 298 300 301 275 152 155 147 151 155 155 163 159 156 164 167 172 169 167 169 169 170 170 174 168 164 162 160 144 134 134 148 149 136 169 120 138 239 92 101 120 114 170 227 207
276 283 287 291 298 299 299 298 309 117 146 162 159 161 161 162 159 160 166 172 180 175 170 169 167 170 178 178 167 164 157 161 141 120 135 151 147 156 175 122 164 133 106 105 102 103 343 232 172
272 274 278 285 291 289 289 294 289 152 166 184 164 158 165 166 165 166 173 178 178 176 174 174 171 173 177 171 161 154 146 148 135 133 149 154 153 154 108 128 114 126 167 141 174 152 209 309 193
267 267 273 280 285 288 296 294 204 185 185 194 175 163 166 161 160 168 175 178 178 175 172 168 170 174 174 173 170 166 168 170 157 150 146 151 164 159 144 137 115 94 67 128 195 167 225 273 292
270 276 279 283 287 286 287 284 238 189 201 189 172 163 163 158 160 164 172 174 171 173 171 167 169 173 175 175 173 178 170 163 151 140 143 158 168 170 152 141 139 141 122 114 78 86 15 333 313
261 269 274 274 275 274 285 281 258 202 172 167 157 151 154 153 152 151 159 160 167 170 171 168 168 170 172 175 176 183 170 167 151 149 153 168 162 175 161 148 151 171 169 122 118 104 202 347 351
244 251 261 257 252 272 322 291 273 168 140 134 140 143 150 152 149 151 160 162 168 169 169 164 162 163 169 171 176 179 168 164 157 159 162 176 167 169 160 154 161 180 147 149 154 158 273 197 269
249 242 251 270 276 281 277 253 261 207 113 119 130 138 148 155 152 154 156 154 162 167 165 158 158 163 167 166 168 167 166 173 167 172 164 183 173 154 148 150 167 180 177 184 162 199 201 196 220
250 250 253 262 271 272 242 235 220 173 126 128 133 141 153 153 149 151 153 152 156 164 162 159 159 162 165 165 162 162 171 182 166 169 181 178 164 148 155 162 169 179 189 184 152 235 217 153 207
238 253 264 264 272 280 275 273 348 35 21 134 150 154 151 150 150 150 153 153 152 154 154 158 162 161 162 163 168 169 174 176 168 176 186 176 153 134 152 165 172 177 177 180 197 223 200 197 229
225 238 254 274 278 281 287 289 126 149 222 220 186 157 151 159 156 151 153 152 152 154 157 161 162 163 165 167 169 164 168 172 172 173 172 180 157 151 157 167 174 179 185 183 196 242 198 208 234
241 241 240 252 268 281 289 295 169 172 205 233 184 149 151 158 154 151 150 152 155 157 159 160 163 166 167 167 165 163 163 168 172 176 177 178 161 157 163 166 167 179 180 170 186 234 229 202 218